Location: Unspecified
(0.0000°N, 0.0000°E)
Time: 11:19:40
(UTC+00:00)

A-11 Canister half - Pass Details

Date: 19 November 2019
Orbit: 1515 x 1685 km, 47.2° (Epoch: 13 December)

Event Time Altitude Azimuth Distance (km) Brightness Sun altitude
Exits shadow 03:06:59 76° 200° (SSW) 1,613 8.9 -36.9°
Drops below altitude 10° 03:15:54 10° 145° (SE) 3,714 11.6 -34.9°
Sets 03:18:55 0° 143° (SE) 4,683 12.3 -34.2°
